Tracking 27420 objects as of 10-Jun-2023
HD Live streaming from Space Station
objects crossing your sky now

LEMUR 2 LILLYJO

Track LEMUR 2 LILLYJO now!
10-day predictions
LEMUR 2 LILLYJO is classified as:


NORAD ID: 44396
Int'l Code: 2019-038L
Perigee: 456.8 km
Apogee: 474.9 km
Inclination: 97.6 °
Period: 93.8 minutes
Semi major axis: 6836 km
RCS: Unknown
Launch date: July 5, 2019
Source: United States (US)
Launch site: VOSTOCHNY COSMODROME (VOSTO)
Your satellite tracking list
Your tracking list is empty




NASA's NSSDC Master Catalog

Two Line Element Set (TLE):
1 44396U 19038L   23161.42325079  .00035442  00000-0  10152-2 0  9991
2 44396  97.6471 143.1649 0013244 323.5883  36.4457 15.35753965217644
Source of the keplerian elements: AFSPC